Regional Weather Roundup
Issued by NWS

Home | Current Version | Previous Version | Graphics & Text | Print | Product List | Glossary On
Versions: 1 2 3 4 5 6 7 8 9 10 11 12 13 14 15 16 17 18 19 20 21 22 23 24 25 26 27 28 29 30 31 32 33 34 35 36 37 38 39 40 41 42 43 44 45 46 47 48 49 50
000
ASUS43 KOAX 301210
RWRNE

WEATHER ROUNDUP FOR NEBRASKA
NATIONAL WEATHER SERVICE OMAHA NE
700 AM CDT THU OCT 30 2014

NOTES: SATELLITE DATA IS BEING USED TO AUGMENT CLOUD COVER ABOVE
       12000 FEET.
       "FAIR" INDICATES FEW OR NO CLOUDS BELOW 12,000 FEET WITH NO
       SIGNIFICANT WEATHER AND/OR OBSTRUCTIONS TO VISIBILITY.

  * THESE STATIONS DO NOT REPORT WEATHER SUCH AS RAIN...SNOW OR FOG.

NEZ001>004-019>022-054>056-301300-
NEBRASKA PANHANDLE

CITY           SKY/WX    TMP DP  RH WIND       PRES   REMARKS
SCOTTSBLUFF    CLEAR     32  28  85 NW8       30.29R WCI  25
6HR MIN TEMP:  32; 6HR MAX TEMP:  43;

ALLIANCE       CLEAR     29  25  85 W9        30.25R WCI  20
6HR MIN TEMP:  27; 6HR MAX TEMP:  35;

CHADRON        CLEAR     38  27  64 SW7       30.26R WCI  33
6HR MIN TEMP:  34; 6HR MAX TEMP:  41;

KIMBALL        CLEAR     37  26  67 NW9       30.28R WCI  30
SIDNEY         CLEAR     37  26  64 W14       30.28R WCI  28
6HR MIN TEMP:  32; 6HR MAX TEMP:  39;

$$

NEZ057>060-069>072-079>082-301300-
SOUTHWEST NEBRASKA

CITY           SKY/WX    TMP DP  RH WIND       PRES   REMARKS
NORTH PLATTE   CLEAR     33  27  78 W8        30.19R WCI  26
6HR MIN TEMP:  30; 6HR MAX TEMP:  44;

IMPERIAL       CLEAR     40  25  55 NW13      30.23R WCI  32
6HR MIN TEMP:  39; 6HR MAX TEMP:  44;

LEXINGTON      CLEAR     38  29  72 NW9       30.15R WCI  31
MCCOOK         CLEAR     40  25  55 W12       30.19R WCI  33
6HR MIN TEMP:  37; 6HR MAX TEMP:  55;

OGALLALA       CLEAR     38  30  72 NW10      30.22R WCI  31
$$

NEZ005>010-023>029-035>040-094-301300-
NORTH CENTRAL NEBRASKA

CITY           SKY/WX    TMP DP  RH WIND       PRES   REMARKS
VALENTINE      CLEAR     37  31  78 W8        30.16R WCI  31
6HR MIN TEMP:  35; 6HR MAX TEMP:  41;

AINSWORTH      CLEAR     42  33  70 W9        30.13R
BROKEN BOW     CLEAR     45  32  60 NW13      30.13R
6HR MIN TEMP:  39; 6HR MAX TEMP:  48;

O`NEILL        CLEAR     45  36  70 NW13      30.08R
ORD            CLEAR     33  29  85 NW7       30.10R WCI  27
6HR MIN TEMP:  32; 6HR MAX TEMP:  41;

THEDFORD       CLEAR     38  32  77 W9        30.18R WCI  32
$$

NEZ041-046>049-061>064-073>077-083>087-301300-
SOUTH CENTRAL NEBRASKA

CITY           SKY/WX    TMP DP  RH WIND       PRES   REMARKS
GRAND ISLAND   CLEAR     39  32  76 W8        30.10R WCI  33
6HR MIN TEMP:  37; 6HR MAX TEMP:  47;

AURORA         CLEAR     42  33  72 NW10      30.08R
HASTINGS       CLEAR     42  31  64 NW12      30.10R
6HR MIN TEMP:  38; 6HR MAX TEMP:  47;

HEBRON         CLEAR     40  34  80 NW8       30.06R WCI  34
HOLDREGE       CLEAR     42  28  58 NW9       30.13R
KEARNEY *      CLEAR     43  28  56 W9        30.13R
YORK           CLEAR     41  36  81 NW9       30.06R
$$

NEZ011>018-030>034-042>045-301300-
NORTHEAST NEBRASKA

CITY           SKY/WX    TMP DP  RH WIND       PRES   REMARKS
NORFOLK        CLEAR     40  33  76 W6        30.04R
6HR MIN TEMP:  36; 6HR MAX TEMP:  46;

ALBION         CLEAR     43  32  66 N6        30.07R
BLAIR          CLEAR     41  32  70 CALM      30.00R
COLUMBUS *       N/A    N/A N/A N/A MISG        N/A
FREMONT        CLEAR     38  33  83 W7        30.02R WCI  33
TEKAMAH        CLEAR     34  29  82 CALM      30.01S
6HR MIN TEMP:  33; 6HR MAX TEMP:  47; 6HR PCP: TRACE;

WAYNE          CLEAR     41  34  76 NW7       30.03R
$$

NEZ050>053-065>068-078-088>093-301300-
SOUTHEAST NEBRASKA

CITY           SKY/WX    TMP DP  RH WIND       PRES   REMARKS
LINCOLN        CLEAR     37  33  85 CALM      30.04R
6HR MIN TEMP:  37; 6HR MAX TEMP:  44; 6HR PCP: TRACE;

OMAHA EPPLEY   PTCLDY    41  35  79 N3        30.02R
6HR MIN TEMP:  40; 6HR MAX TEMP:  48;

BEATRICE       CLEAR     36  35  94 NW3       30.03R
FALLS CITY     CLOUDY    45  40  82 CALM      29.97F
6HR MIN TEMP:  42; 6HR MAX TEMP:  45;

NEBRASKA CITY  PTCLDY    40  34  79 NW5       30.01R
PLATTSMOUTH    CLEAR     38  33  84 W5        30.01R WCI  34
$$

NEZ044-045-051>053-067-301300-
OMAHA AREA

CITY           SKY/WX    TMP DP  RH WIND       PRES   REMARKS
OMAHA EPPLEY   PTCLDY    41  35  79 N3        30.02R
6HR MIN TEMP:  40; 6HR MAX TEMP:  48;

BLAIR          CLEAR     41  32  70 CALM      30.00R
FREMONT        CLEAR     38  33  83 W7        30.02R WCI  33
MILLARD        CLEAR     38  35  88 CALM      30.01S
OFFUTT AFB     CLEAR     41  36  83 NW5       30.00S
PLATTSMOUTH    CLEAR     38  33  84 W5        30.01R WCI  34
WAHOO          FAIR      37  32  84 NW3       30.02R
$$



USA.gov is the U.S. government's official web portal to all federal, state and local government web resources and services.